This demonstration page uses our WeatherBlox Daily Observations layout. Learn more.

Left ArrowRight Arrow

44.89941, -97.11507

Hourly Observations for June 23, 2018

Temp ( °F °C ) Dew Point ( °F °C ) Humidity (%) Winds ( mph kmh ) Pressure ( in mb ) Visibility ( mi km ) Precip ( " mm )
12:53 am 00:53 Mostly Clear 65 18.3 61 16.1 87 87 SSW 7 11 29.78 1008 10 16 0.00 0.00
1:53 am 01:53 Clear 64 17.8 61 16.1 90 90 S 5 7 29.77 1008 10 16 0.00 0.00
2:53 am 02:53 Clear 63 17.2 61 16.1 93 93 SE 3 6 29.75 1007 10 16 0.00 0.00
3:53 am 03:53 Clear 61 16.1 61 16.1 100 100 SSE 5 7 29.74 1007 9 14 0.00 0.00
4:53 am 04:53 Clear 61 16.1 60 15.6 97 97 SE 5 7 29.73 1007 9 14 0.00 0.00
5:53 am 05:53 Sunny with Mist and Fog 60 15.6 60 15.6 100 100 SSE 7 11 29.74 1007 5 8 0.00 0.00
6:53 am 06:53 Sunny 62 16.7 61 16.1 96 96 SSE 5 7 29.73 1007 8 13 0.00 0.00
7:53 am 07:53 Sunny 64 17.8 62 16.7 93 93 SSE 6 9 29.73 1007 10 16 0.00 0.00
8:53 am 08:53 Sunny 66 18.9 62 16.7 87 87 SSE 8 13 29.73 1007 10 16 0.00 0.00
9:53 am 09:53 Sunny 70 21.1 63 17.2 79 79 SSE 10 17 29.73 1007 10 16 0.00 0.00
10:53 am 10:53 Mostly Sunny 73 22.8 60 15.6 64 64 S 13 20 29.72 1007 10 16 0.00 0.00
11:53 am 11:53 Partly Cloudy 74 23.3 60 15.6 62 62 S 14 22 29.72 1007 10 16 0.00 0.00
12:53 pm 12:53 Mostly Cloudy 74 23.3 60 15.6 62 62 S 15 24 29.72 1006 10 16 0.00 0.00
1:53 pm 13:53 Cloudy 74 23.3 60 15.6 62 62 SSE 16 26 29.71 1006 10 16 0.00 0.00
2:53 pm 14:53 Cloudy 74 23.3 60 15.6 62 62 SSE 13 20 29.69 1006 10 16 0.00 0.00
3:53 pm 15:53 Cloudy 73 22.8 59 15 62 62 SSE 12 19 29.69 1005 10 16 0.00 0.00
4:53 pm 16:53 Cloudy 73 22.8 60 15.6 64 64 SSE 12 19 29.69 1006 10 16 0.00 0.00
5:53 pm 17:53 Mostly Sunny 72 22.2 61 16.1 68 68 SSE 12 19 29.69 1005 10 16 0.00 0.00
6:25 pm 18:25 Cloudy with Thunderstorms 71 21.7 62 16.7 73 73 SSE 12 19 29.65 1004 10 16 0.00 0.03
6:39 pm 18:39 Cloudy with Light Rain 69 20.6 64 17.8 84 84 S 10 17 29.65 1004 6 10 0.01 0.25
6:49 pm 18:49 Cloudy with Nearby Thunderstorms 66 19 66 19 100 100 SW 8 13 29.65 1004 6 10 0.01 0.25
6:53 pm 18:53 Cloudy with Nearby Thunderstorms 67 19.4 65 18.3 93 93 SW 6 9 29.69 1005 7 11 0.01 0.25
7:08 pm 19:08 Cloudy with Light Rain 67 19.4 66 18.9 97 97 Calm 29.65 1004 6 10 0.01 0.25
7:53 pm 19:53 Cloudy 70 21.1 64 17.8 82 82 SE 7 11 29.69 1005 10 16 0.03 0.76
8:53 pm 20:53 Cloudy 70 21.1 64 17.8 82 82 SE 7 11 29.70 1006 10 16 0.00 0.00
9:53 pm 21:53 Mostly Clear 69 20.6 64 17.8 84 84 SE 6 9 29.70 1006 10 16 0.00 0.00
10:53 pm 22:53 Clear 67 19.4 63 17.2 87 87 SE 6 9 29.70 1006 10 16 0.00 0.00
11:53 pm 23:53 Mostly Cloudy 66 18.9 64 17.8 93 93 SE 5 7 29.72 1006 10 16 0.00 0.00

Powered by AerisWeather